Location: Newark
(45.2500°N, 7.5833°E)
Time: 20:43:01
(UTC+00:00)

SR - Pass Details

Date: 30 January 2020
Orbit: 575 x 880 km, 66.7° (Epoch: 22 February)

Event Time Altitude Azimuth Distance (km) Brightness Sun altitude
Exits shadow 05:24:10 13° 325° (NW) 2,208 ? -15.8°
Maximum altitude 05:29:11 81° 240° (WSW) 784 ? -14.9°
Drops below altitude 10° 05:34:14 10° 154° (SSE) 2,200 ? -14.0°
Sets 05:36:28 0° 153° (SSE) 3,067 ? -13.6°
